Time,TemperatureF,DewpointF,PressureIn,WindDirection,WindDirectionDegrees,WindSpeedMPH,WindSpeedGustMPH,Humidity,HourlyPrecipIn,Conditions,Clouds,dailyrainin,SoftwareType,DateUTC
2013-03-01 00:01:00,43.3,15.0,30.41,South,169,1.0,-999.0,32,-99.99,,,0.00,weatherlink.com 1.10,2013-03-01 07:01:00,
2013-03-01 00:16:00,42.6,14.0,30.39,South,169,0.0,-999.0,32,-99.99,,,0.00,weatherlink.com 1.10,2013-03-01 07:16:00,
2013-03-01 00:31:00,42.5,15.0,30.39,South,186,1.0,-999.0,33,-99.99,,,0.00,weatherlink.com 1.10,2013-03-01 07:31:00,
2013-03-01 00:49:00,42.2,14.0,30.40,WSW,258,0.0,-999.0,32,-99.99,,,0.00,weatherlink.com 1.10,2013-03-01 07:49:00,
2013-03-01 01:01:00,41.5,14.0,30.40,South,175,1.0,-999.0,33,-99.99,,,0.00,weatherlink.com 1.10,2013-03-01 08:01:00,
2013-03-01 01:16:00,40.3,16.0,30.39,South,172,0.0,-999.0,38,-99.99,,,0.00,weatherlink.com 1.10,2013-03-01 08:16:00,
2013-03-01 01:32:00,39.6,17.0,30.40,South,176,0.0,-999.0,40,-99.99,,,0.00,weatherlink.com 1.10,2013-03-01 08:32:00,
2013-03-01 01:50:00,39.2,16.0,30.40,South,175,0.0,-999.0,39,-99.99,,,0.00,weatherlink.com 1.10,2013-03-01 08:50:00,
2013-03-01 02:02:00,38.3,17.0,30.40,South,172,0.0,-999.0,43,-99.99,,,0.00,weatherlink.com 1.10,2013-03-01 09:02:00,
2013-03-01 02:17:00,37.6,17.0,30.40,SW,219,0.0,-999.0,44,-99.99,,,0.00,weatherlink.com 1.10,2013-03-01 09:17:00,
2013-03-01 02:32:00,37.3,18.0,30.41,South,172,0.0,-999.0,46,-99.99,,,0.00,weatherlink.com 1.10,2013-03-01 09:32:00,
2013-03-01 02:50:00,35.6,17.0,30.40,South,179,0.0,-999.0,46,-99.99,,,0.00,weatherlink.com 1.10,2013-03-01 09:50:00,
2013-03-01 03:02:00,35.0,16.0,30.41,South,172,0.0,-999.0,47,-99.99,,,0.00,weatherlink.com 1.10,2013-03-01 10:02:00,
2013-03-01 03:17:00,35.0,17.0,30.40,South,169,0.0,-999.0,48,-99.99,,,0.00,weatherlink.com 1.10,2013-03-01 10:17:00,
2013-03-01 03:32:00,34.6,18.0,30.39,South,169,0.0,-999.0,50,-99.99,,,0.00,weatherlink.com 1.10,2013-03-01 10:32:00,
2013-03-01 03:50:00,35.0,19.0,30.39,South,169,0.0,-999.0,52,-99.99,,,0.00,weatherlink.com 1.10,2013-03-01 10:50:00,
2013-03-01 04:02:00,34.6,19.0,30.38,South,171,1.0,-999.0,53,-99.99,,,0.00,weatherlink.com 1.10,2013-03-01 11:02:00,
2013-03-01 04:17:00,33.5,18.0,30.39,South,171,0.0,-999.0,53,-99.99,,,0.00,weatherlink.com 1.10,2013-03-01 11:17:00,
2013-03-01 04:33:00,33.1,17.0,30.39,South,175,0.0,-999.0,53,-99.99,,,0.00,weatherlink.com 1.10,2013-03-01 11:33:00,
2013-03-01 04:51:00,32.9,17.0,30.40,South,175,0.0,-999.0,53,-99.99,,,0.00,weatherlink.com 1.10,2013-03-01 11:51:00,
2013-03-01 05:03:00,32.9,18.0,30.40,South,175,0.0,-999.0,55,-99.99,,,0.00,weatherlink.com 1.10,2013-03-01 12:03:00,
2013-03-01 05:18:00,31.8,18.0,30.42,SSW,199,0.0,-999.0,56,-99.99,,,0.00,weatherlink.com 1.10,2013-03-01 12:18:00,
2013-03-01 05:33:00,32.5,18.0,30.42,WSW,243,0.0,-999.0,55,-99.99,,,0.00,weatherlink.com 1.10,2013-03-01 12:33:00,
2013-03-01 05:51:00,32.9,18.0,30.42,South,179,0.0,-999.0,54,-99.99,,,0.00,weatherlink.com 1.10,2013-03-01 12:51:00,
2013-03-01 06:03:00,32.1,17.0,30.42,South,179,0.0,-999.0,55,-99.99,,,0.00,weatherlink.com 1.10,2013-03-01 13:03:00,
2013-03-01 06:18:00,31.2,17.0,30.44,SW,229,0.0,-999.0,57,-99.99,,,0.00,weatherlink.com 1.10,2013-03-01 13:18:00,
2013-03-01 06:33:00,31.5,17.0,30.44,SSW,193,0.0,-999.0,55,-99.99,,,0.00,weatherlink.com 1.10,2013-03-01 13:33:00,
2013-03-01 06:51:00,31.3,17.0,30.44,SSW,209,0.0,-999.0,55,-99.99,,,0.00,weatherlink.com 1.10,2013-03-01 13:51:00,
2013-03-01 07:03:00,32.5,17.0,30.43,South,179,0.0,-999.0,54,-99.99,,,0.00,weatherlink.com 1.10,2013-03-01 14:03:00,
2013-03-01 07:18:00,34.1,18.0,30.44,South,171,0.0,-999.0,51,-99.99,,,0.00,weatherlink.com 1.10,2013-03-01 14:18:00,
2013-03-01 07:33:00,37.6,18.0,30.44,SW,232,0.0,-999.0,46,-99.99,,,0.00,weatherlink.com 1.10,2013-03-01 14:33:00,
2013-03-01 07:52:00,40.6,17.0,30.43,NW,312,2.0,-999.0,38,-99.99,,,0.00,weatherlink.com 1.10,2013-03-01 14:52:00,
2013-03-01 08:04:00,40.6,20.0,30.43,NW,306,1.0,-999.0,43,-99.99,,,0.00,weatherlink.com 1.10,2013-03-01 15:04:00,
2013-03-01 08:19:00,44.3,19.0,30.44,NW,312,2.0,-999.0,36,-99.99,,,0.00,weatherlink.com 1.10,2013-03-01 15:19:00,
2013-03-01 08:34:00,47.1,19.0,30.44,NW,309,1.0,-999.0,33,-99.99,,,0.00,weatherlink.com 1.10,2013-03-01 15:34:00,
2013-03-01 08:52:00,47.3,17.0,30.43,NW,306,2.0,-999.0,30,-99.99,,,0.00,weatherlink.com 1.10,2013-03-01 15:52:00,
2013-03-01 09:04:00,49.6,16.0,30.43,WNW,302,6.0,-999.0,26,-99.99,,,0.00,weatherlink.com 1.10,2013-03-01 16:04:00,
2013-03-01 09:19:00,51.1,15.0,30.43,West,271,2.0,-999.0,24,-99.99,,,0.00,weatherlink.com 1.10,2013-03-01 16:19:00,
2013-03-01 09:34:00,52.8,16.0,30.43,WSW,253,1.0,-999.0,23,-99.99,,,0.00,weatherlink.com 1.10,2013-03-01 16:34:00,
2013-03-01 09:52:00,54.5,14.0,30.43,WNW,289,2.0,-999.0,20,-99.99,,,0.00,weatherlink.com 1.10,2013-03-01 16:52:00,
2013-03-01 10:05:00,56.7,13.0,30.43,WNW,288,1.0,-999.0,18,-99.99,,,0.00,weatherlink.com 1.10,2013-03-01 17:05:00,
2013-03-01 10:20:00,58.4,12.0,30.43,WNW,289,2.0,-999.0,16,-99.99,,,0.00,weatherlink.com 1.10,2013-03-01 17:20:00,
2013-03-01 10:35:00,59.6,13.0,30.42,WNW,282,1.0,-999.0,16,-99.99,,,0.00,weatherlink.com 1.10,2013-03-01 17:35:00,
2013-03-01 10:53:00,59.8,13.0,30.42,NW,311,8.0,-999.0,16,-99.99,,,0.00,weatherlink.com 1.10,2013-03-01 17:53:00,
2013-03-01 11:05:00,60.7,14.0,30.42,WSW,239,1.0,-999.0,16,-99.99,,,0.00,weatherlink.com 1.10,2013-03-01 18:05:00,
2013-03-01 11:20:00,61.8,15.0,30.43,SW,236,2.0,-999.0,16,-99.99,,,0.00,weatherlink.com 1.10,2013-03-01 18:20:00,
2013-03-01 11:35:00,63.4,13.0,30.42,SSW,209,2.0,-999.0,14,-99.99,,,0.00,weatherlink.com 1.10,2013-03-01 18:35:00,
2013-03-01 11:53:00,65.0,13.0,30.41,SW,222,1.0,-999.0,13,-99.99,,,0.00,weatherlink.com 1.10,2013-03-01 18:53:00,
2013-03-01 12:05:00,66.0,12.0,30.39,SSW,208,2.0,-999.0,12,-99.99,,,0.00,weatherlink.com 1.10,2013-03-01 19:05:00,
2013-03-01 12:20:00,66.8,14.0,30.39,West,281,1.0,-999.0,13,-99.99,,,0.00,weatherlink.com 1.10,2013-03-01 19:20:00,
2013-03-01 12:35:00,68.3,14.0,30.39,SW,229,1.0,-999.0,12,-99.99,,,0.00,weatherlink.com 1.10,2013-03-01 19:35:00,
2013-03-01 12:54:00,68.9,10.0,30.37,SSW,210,1.0,-999.0,10,-99.99,,,0.00,weatherlink.com 1.10,2013-03-01 19:54:00,
2013-03-01 13:06:00,69.6,13.0,30.36,West,278,0.0,-999.0,11,-99.99,,,0.00,weatherlink.com 1.10,2013-03-01 20:06:00,
2013-03-01 13:21:00,69.4,12.0,30.35,ESE,123,2.0,-999.0,11,-99.99,,,0.00,weatherlink.com 1.10,2013-03-01 20:21:00,
2013-03-01 13:36:00,70.3,11.0,30.34,SE,141,1.0,-999.0,10,-99.99,,,0.00,weatherlink.com 1.10,2013-03-01 20:36:00,
2013-03-01 13:54:00,69.8,11.0,30.33,WSW,244,2.0,-999.0,10,-99.99,,,0.00,weatherlink.com 1.10,2013-03-01 20:54:00,
2013-03-01 14:06:00,72.1,19.0,30.31,WSW,254,9.0,-999.0,13,-99.99,,,0.00,weatherlink.com 1.10,2013-03-01 21:06:00,
2013-03-01 14:21:00,72.5,19.0,30.32,WSW,256,2.0,-999.0,13,-99.99,,,0.00,weatherlink.com 1.10,2013-03-01 21:21:00,
2013-03-01 14:36:00,72.8,19.0,30.31,NW,308,1.0,-999.0,13,-99.99,,,0.00,weatherlink.com 1.10,2013-03-01 21:36:00,
2013-03-01 14:54:00,73.0,17.0,30.30,WNW,294,1.0,-999.0,12,-99.99,,,0.00,weatherlink.com 1.10,2013-03-01 21:54:00,
2013-03-01 15:06:00,73.9,16.0,30.30,SW,229,2.0,-999.0,11,-99.99,,,0.00,weatherlink.com 1.10,2013-03-01 22:06:00,
2013-03-01 15:21:00,73.0,17.0,30.29,WSW,243,6.0,-999.0,12,-99.99,,,0.00,weatherlink.com 1.10,2013-03-01 22:21:00,
2013-03-01 15:36:00,74.0,16.0,30.29,SSW,213,1.0,-999.0,11,-99.99,,,0.00,weatherlink.com 1.10,2013-03-01 22:36:00,
2013-03-01 15:55:00,74.9,21.0,30.28,West,281,2.0,-999.0,13,-99.99,,,0.00,weatherlink.com 1.10,2013-03-01 22:55:00,
2013-03-01 16:07:00,74.2,22.0,30.28,West,281,6.0,-999.0,14,-99.99,,,0.00,weatherlink.com 1.10,2013-03-01 23:07:00,
2013-03-01 16:22:00,74.4,24.0,30.28,West,274,4.0,-999.0,15,-99.99,,,0.00,weatherlink.com 1.10,2013-03-01 23:22:00,
2013-03-01 16:37:00,74.9,24.0,30.28,WNW,294,2.0,-999.0,15,-99.99,,,0.00,weatherlink.com 1.10,2013-03-01 23:37:00,
2013-03-01 16:55:00,74.0,23.0,30.28,WNW,291,2.0,-999.0,15,-99.99,,,0.00,weatherlink.com 1.10,2013-03-01 23:55:00,
2013-03-01 17:07:00,74.2,24.0,30.28,WSW,243,2.0,-999.0,15,-99.99,,,0.00,weatherlink.com 1.10,2013-03-02 00:07:00,
2013-03-01 17:22:00,74.6,28.0,30.28,WNW,282,0.0,-999.0,18,-99.99,,,0.00,weatherlink.com 1.10,2013-03-02 00:22:00,
2013-03-01 17:37:00,73.9,28.0,30.27,West,267,1.0,-999.0,18,-99.99,,,0.00,weatherlink.com 1.10,2013-03-02 00:37:00,
2013-03-01 17:55:00,73.5,29.0,30.28,West,270,0.0,-999.0,19,-99.99,,,0.00,weatherlink.com 1.10,2013-03-02 00:55:00,
2013-03-01 18:07:00,73.3,30.0,30.28,West,277,0.0,-999.0,20,-99.99,,,0.00,weatherlink.com 1.10,2013-03-02 01:07:00,
2013-03-01 18:22:00,71.8,30.0,30.28,WNW,282,0.0,-999.0,21,-99.99,,,0.00,weatherlink.com 1.10,2013-03-02 01:22:00,
2013-03-01 18:37:00,68.8,28.0,30.29,West,275,0.0,-999.0,22,-99.99,,,0.00,weatherlink.com 1.10,2013-03-02 01:37:00,
2013-03-01 18:55:00,65.6,27.0,30.31,West,268,0.0,-999.0,23,-99.99,,,0.00,weatherlink.com 1.10,2013-03-02 01:55:00,
2013-03-01 19:08:00,63.9,25.0,30.32,West,267,0.0,-999.0,23,-99.99,,,0.00,weatherlink.com 1.10,2013-03-02 02:08:00,
2013-03-01 19:23:00,60.7,24.0,30.30,NW,305,1.0,-999.0,24,-99.99,,,0.00,weatherlink.com 1.10,2013-03-02 02:23:00,
2013-03-01 19:38:00,59.6,24.0,30.32,NW,311,1.0,-999.0,25,-99.99,,,0.00,weatherlink.com 1.10,2013-03-02 02:38:00,
2013-03-01 19:56:00,60.5,19.0,30.32,South,191,0.0,-999.0,20,-99.99,,,0.00,weatherlink.com 1.10,2013-03-02 02:56:00,
2013-03-01 20:08:00,61.3,19.0,30.32,South,186,0.0,-999.0,19,-99.99,,,0.00,weatherlink.com 1.10,2013-03-02 03:08:00,
2013-03-01 20:23:00,59.6,19.0,30.30,WSW,241,0.0,-999.0,21,-99.99,,,0.00,weatherlink.com 1.10,2013-03-02 03:23:00,
2013-03-01 20:38:00,58.7,20.0,30.31,SSW,196,1.0,-999.0,22,-99.99,,,0.00,weatherlink.com 1.10,2013-03-02 03:38:00,
2013-03-01 20:56:00,56.9,20.0,30.32,SSW,203,0.0,-999.0,24,-99.99,,,0.00,weatherlink.com 1.10,2013-03-02 03:56:00,
2013-03-01 21:08:00,55.7,22.0,30.32,SSW,196,2.0,-999.0,27,-99.99,,,0.00,weatherlink.com 1.10,2013-03-02 04:08:00,
2013-03-01 21:23:00,55.7,22.0,30.31,South,188,0.0,-999.0,27,-99.99,,,0.00,weatherlink.com 1.10,2013-03-02 04:23:00,
2013-03-01 21:38:00,55.4,23.0,30.31,SSW,208,0.0,-999.0,28,-99.99,,,0.00,weatherlink.com 1.10,2013-03-02 04:38:00,
2013-03-01 21:56:00,54.1,23.0,30.32,SSW,203,0.0,-999.0,30,-99.99,,,0.00,weatherlink.com 1.10,2013-03-02 04:56:00,
2013-03-01 22:08:00,53.2,22.0,30.32,SSW,200,1.0,-999.0,30,-99.99,,,0.00,weatherlink.com 1.10,2013-03-02 05:08:00,
2013-03-01 22:23:00,53.9,21.0,30.32,SW,226,2.0,-999.0,28,-99.99,,,0.00,weatherlink.com 1.10,2013-03-02 05:23:00,
2013-03-01 22:38:00,52.6,22.0,30.32,SW,232,0.0,-999.0,30,-99.99,,,0.00,weatherlink.com 1.10,2013-03-02 05:38:00,
2013-03-01 22:56:00,50.8,23.0,30.33,WSW,247,0.0,-999.0,34,-99.99,,,0.00,weatherlink.com 1.10,2013-03-02 05:56:00,
2013-03-01 23:09:00,49.6,23.0,30.34,SW,216,0.0,-999.0,35,-99.99,,,0.00,weatherlink.com 1.10,2013-03-02 06:09:00,
2013-03-01 23:24:00,49.1,24.0,30.34,SW,227,0.0,-999.0,37,-99.99,,,0.00,weatherlink.com 1.10,2013-03-02 06:24:00,
2013-03-01 23:39:00,48.2,22.0,30.34,SSW,205,0.0,-999.0,36,-99.99,,,0.00,weatherlink.com 1.10,2013-03-02 06:39:00,
2013-03-01 23:57:00,47.9,22.0,30.34,SSW,213,0.0,-999.0,36,-99.99,,,0.00,weatherlink.com 1.10,2013-03-02 06:57:00,